GFSNIL_sfc_wetblb_273.txt.gz
Wetbulb
22.60 22.87 22.68 22.79 22.87 22.78 23.05 23.91 25.16 25.29 25.65 25.87 26.29 26.34 26.30 25.98 26.06 26.27 26.14 25.79 26.36 27.09
21.69 22.16 22.15 22.42 23.15 23.13 23.75 24.89 25.07 25.02 24.54 24.97 25.24 25.43 25.31 24.86 24.76 25.39 25.61 25.63 26.06 26.24
21.81 22.35 22.46 22.45 22.08 22.54 23.15 23.55 23.54 23.59 23.84 23.99 24.40 24.64 24.55 24.20 24.78 24.48 25.06 26.00 25.36 25.70
21.52 22.15 22.25 22.20 22.18 22.32 22.93 22.96 22.84 23.06 23.07 22.99 23.17 23.90 23.70 23.69 23.88 23.48 23.94 24.81 24.91 24.95
21.56 21.52 20.95 21.03 21.82 22.51 21.88 22.90 22.74 22.86 22.68 22.77 23.04 23.40 22.84 22.63 23.31 22.87 22.56 23.33 23.98 24.11
19.81 19.86 19.96 20.65 21.53 21.99 21.67 21.74 22.09 22.65 21.94 22.05 22.66 22.64 22.89 22.78 22.64 22.78 22.88 23.07 23.13 23.46
18.90 19.67 19.88 20.63 21.13 21.46 21.64 21.21 21.32 21.62 21.80 22.39 22.41 22.96 22.92 23.02 22.70 22.73 23.15 23.88 23.85 23.85
19.25 19.86 19.97 20.17 20.61 21.00 21.12 21.22 21.15 21.17 21.52 21.83 22.14 23.08 22.74 23.50 22.92 22.24 22.03 23.14 23.97 24.62
18.65 19.04 19.21 19.46 19.70 19.85 19.88 20.07 20.47 20.32 20.79 21.23 22.82 26.63 28.63 28.27 25.73 26.30 26.04 25.12 24.81 24.45
18.03 17.95 18.29 18.68 18.45 18.66 18.60 19.13 19.28 19.98 20.72 20.76 21.98 27.69 29.41 30.31 27.93 27.40 26.76 26.31 26.20 26.08
17.17 16.83 17.31 17.49 17.64 17.50 18.42 18.80 19.55 20.74 21.82 22.21 23.68 28.91 30.09 30.68 27.72 27.08 27.13 27.73 27.89 26.82
16.10 15.67 16.52 16.19 16.24 17.49 18.43 19.76 20.52 22.42 23.66 23.79 24.25 28.78 29.85 29.61 27.12 26.43 26.31 27.20 27.79 27.70
15.75 16.02 15.26 15.90 16.80 18.65 20.00 21.33 23.10 22.83 24.08 26.39 24.36 27.81 29.23 28.99 26.62 25.63 26.12 26.95 27.46 30.96
15.40 15.06 16.13 16.97 18.33 20.11 21.24 21.69 21.11 23.04 23.65 23.94 25.22 25.92 30.00 31.09 28.34 27.23 26.69 26.58 27.04 28.61

GFSNIL_sfc_wetblb_276.txt.gz
Wetbulb
21.36 21.39 21.34 21.26 21.44 21.38 21.62 22.31 23.91 24.17 24.52 24.66 24.94 24.91 24.79 24.30 24.26 24.51 24.41 23.76 24.49 24.96
20.49 20.96 20.66 21.05 21.48 21.83 22.31 23.88 24.02 23.76 23.07 23.52 23.82 23.99 23.85 23.35 23.11 23.64 23.85 24.01 24.38 24.23
20.40 21.00 21.21 21.35 21.13 21.70 22.24 22.62 22.31 22.31 22.41 22.50 22.90 23.11 23.00 22.72 23.29 22.86 23.45 24.23 24.03 24.51
20.20 20.95 21.16 21.25 21.35 21.44 21.91 21.92 21.82 22.09 22.08 22.01 22.02 22.64 22.29 22.26 22.39 22.18 22.42 23.15 23.28 23.42
20.33 20.34 19.82 20.13 20.91 21.37 20.82 21.87 21.71 21.87 21.64 21.72 21.94 22.19 21.83 21.53 22.22 21.58 21.30 21.96 22.26 22.36
18.57 18.68 19.12 19.70 20.35 20.87 20.59 20.73 21.07 21.67 20.91 21.01 21.65 21.56 21.92 21.80 21.57 21.67 21.81 21.97 22.21 22.44
17.61 18.66 18.87 19.47 19.98 20.35 20.58 20.06 20.18 20.57 20.71 21.17 21.26 21.95 21.91 22.27 21.87 21.80 22.19 22.92 22.88 22.40
18.26 18.77 18.75 18.95 19.46 19.90 19.98 20.01 19.91 20.00 20.37 20.67 21.07 22.16 22.12 23.28 23.52 23.16 22.30 22.41 23.07 23.36
17.42 17.84 18.01 18.41 18.57 18.65 18.65 18.86 19.16 18.92 19.37 19.87 21.74 25.85 28.23 28.13 25.80 25.95 25.61 25.00 25.90 25.54
16.80 16.71 17.22 17.53 17.28 17.34 17.34 17.85 17.97 18.66 19.43 19.80 21.37 27.21 29.29 30.89 28.27 27.63 27.35 27.32 27.48 27.50
15.97 15.75 16.13 16.18 16.34 16.48 17.02 17.41 18.08 19.16 20.41 21.45 23.68 28.61 29.65 30.88 28.33 27.60 27.08 26.90 26.64 25.85
14.90 14.38 15.03 14.86 15.05 15.97 17.11 17.72 18.71 21.28 21.76 21.88 22.61 28.25 30.23 29.34 26.98 26.46 26.06 26.55 26.23 26.17
14.38 14.48 13.96 14.24 15.25 17.14 17.78 19.40 21.04 21.35 21.50 24.27 24.18 28.08 29.70 29.40 27.24 26.03 26.44 27.29 27.51 30.55
13.90 13.58 14.07 15.61 16.20 17.79 19.53 19.85 19.07 19.81 21.99 23.99 25.53 25.58 29.76 31.11 28.64 28.28 28.38 28.55 29.04 29.41

GFSNIL_sfc_wetblb_279.txt.gz
Wetbulb
23.98 23.82 23.55 23.67 23.63 23.38 23.68 24.30 25.55 25.74 26.13 26.25 26.35 26.16 26.12 26.18 26.23 26.10 26.58 25.53 25.99 26.60
23.49 23.19 22.87 23.32 23.78 23.80 24.28 24.88 25.44 25.29 24.68 24.99 25.16 25.21 25.13 25.23 24.57 25.16 25.37 25.39 25.60 25.69
22.30 22.94 23.12 23.23 22.76 22.94 23.69 24.11 23.87 23.78 24.07 24.20 24.46 24.60 24.42 24.42 24.66 24.01 25.00 25.45 24.74 24.66
21.83 22.46 22.69 22.43 22.45 22.62 23.18 23.34 23.33 23.45 23.67 23.33 23.63 23.99 23.86 23.51 23.75 23.09 23.41 24.12 24.01 24.07
21.32 21.49 21.15 21.18 21.69 22.54 22.33 23.30 23.14 23.17 22.85 23.26 23.51 23.58 23.18 22.65 23.01 22.82 22.43 23.22 23.49 22.96
19.75 19.90 20.14 20.65 21.34 21.93 22.11 22.02 22.69 22.65 22.12 22.21 22.70 22.66 23.00 22.88 22.71 22.80 22.93 23.08 22.90 23.00
18.81 19.32 19.83 20.80 20.93 21.46 21.70 21.44 21.59 21.97 21.86 21.93 22.05 22.46 22.59 22.74 22.53 22.68 23.14 23.79 23.85 23.65
18.66 19.36 19.60 19.89 20.42 21.02 21.01 21.06 21.09 20.83 21.20 21.50 21.58 22.38 22.47 23.92 25.09 25.43 25.35 25.61 25.05 24.85
17.66 18.38 18.79 19.28 19.59 19.62 19.61 19.84 20.24 19.86 20.04 20.28 21.66 25.30 27.96 28.40 27.00 27.79 27.63 27.20 28.15 28.66
16.94 17.28 17.88 18.27 18.07 18.04 18.17 18.91 18.59 19.13 19.99 20.12 21.48 26.52 29.26 30.55 27.93 27.65 28.09 28.41 27.70 27.59
16.38 16.16 16.78 16.78 16.83 17.10 17.85 17.67 18.62 19.29 20.21 21.41 23.17 27.72 29.01 30.16 29.22 28.30 27.96 27.87 27.84 27.45
15.34 14.79 15.34 15.12 15.53 16.43 17.07 18.16 18.49 20.89 21.60 21.48 22.10 27.10 29.47 29.85 28.99 27.96 27.61 28.24 28.56 28.35
14.69 14.78 13.92 14.53 15.02 16.99 17.60 18.81 20.95 21.21 21.73 23.40 22.76 27.34 29.93 30.06 28.88 27.23 27.64 29.55 30.04 32.00
14.23 13.61 14.18 15.35 16.34 16.90 19.00 19.50 19.44 19.69 21.07 23.07 25.41 26.33 30.16 31.42 28.71 28.46 28.25 27.88 26.80 28.26

GFSNIL_sfc_wetblb_285.txt.gz
Wetbulb
30.87 30.67 30.42 30.54 30.16 29.79 29.85 30.46 31.28 30.80 30.72 30.57 30.68 30.93 30.81 30.27 29.98 30.11 29.89 29.16 29.38 29.25
30.26 29.77 29.18 29.67 30.00 29.86 30.42 30.43 30.19 30.09 29.55 29.86 29.84 30.06 29.73 29.28 28.79 29.33 29.30 29.08 29.18 28.57
28.83 29.25 29.15 29.29 28.84 29.08 29.34 29.40 28.89 28.75 28.89 28.83 29.06 29.09 28.94 28.48 28.77 28.30 28.52 28.71 28.04 27.92
28.18 28.49 28.61 28.29 28.45 28.29 28.39 28.31 27.88 27.93 27.90 27.73 27.82 28.28 27.96 27.72 27.71 26.98 27.01 27.61 27.14 26.78
27.61 27.67 27.23 26.99 27.25 27.72 27.01 27.78 27.62 27.71 27.33 27.30 27.43 27.63 27.00 26.33 26.69 25.93 25.40 25.73 25.73 25.22
26.38 26.29 25.69 25.82 26.26 26.61 26.47 26.38 26.99 26.85 26.31 26.23 26.55 26.33 26.56 26.31 25.91 25.66 25.56 25.59 25.04 24.91
24.88 24.93 25.06 25.35 25.42 25.74 26.05 25.75 25.82 25.96 25.99 26.11 26.05 26.17 26.03 25.86 25.56 25.64 25.88 26.28 26.49 26.40
23.97 24.45 24.40 24.29 24.79 25.39 25.48 25.12 25.64 25.37 25.64 25.73 25.72 25.76 25.68 26.41 26.33 26.29 26.43 27.46 28.43 29.21
22.66 22.89 23.01 23.39 23.85 24.03 24.44 24.89 25.04 24.57 24.57 24.61 25.21 28.07 29.38 29.16 27.62 28.56 27.82 26.83 27.86 28.89
21.85 21.63 22.08 22.62 22.86 22.84 23.24 24.08 23.66 23.88 24.43 23.89 24.76 28.55 29.91 30.54 28.27 28.28 27.70 27.74 28.01 28.61
21.07 20.83 21.37 21.55 21.64 21.94 22.65 22.76 23.21 23.46 23.74 24.19 25.01 28.68 29.87 30.56 28.71 28.27 28.80 29.41 29.59 29.38
19.88 19.56 20.05 19.71 19.99 21.20 22.31 22.21 22.40 23.31 24.04 23.45 24.32 28.46 30.05 30.26 28.78 28.70 28.75 29.83 30.75 30.22
19.24 19.20 18.95 18.88 20.11 21.57 22.07 21.82 23.63 23.16 23.97 25.42 24.31 28.51 30.85 30.33 29.00 27.82 29.56 29.43 30.13 31.34
18.67 18.78 19.49 20.22 20.53 21.32 22.59 22.59 22.34 22.63 23.44 24.76 26.70 27.39 30.55 31.28 28.68 28.79 28.00 27.83 27.97 28.37

GFSNIL_sfc_wetblb_291.txt.gz
Wetbulb
24.94 23.75 23.70 24.07 23.34 22.93 23.08 23.94 25.04 24.53 24.72 24.89 25.33 25.29 24.88 23.85 23.60 23.59 23.58 22.29 22.54 24.03
23.61 23.53 23.16 22.99 23.18 22.85 23.53 26.28 24.94 24.19 23.86 24.11 24.37 24.46 24.05 23.03 22.57 22.90 23.39 23.79 23.68 23.09
23.35 23.54 23.25 23.22 22.70 23.12 23.58 24.33 23.72 23.42 23.53 23.51 23.50 23.75 22.95 22.51 23.15 22.25 23.37 24.35 22.80 22.92
23.70 23.97 23.81 24.55 23.76 23.59 23.97 23.37 23.21 22.92 22.83 22.71 22.51 22.97 22.00 21.65 22.03 22.07 22.39 22.62 22.30 22.66
24.47 24.42 24.25 23.90 23.59 23.13 22.18 23.18 23.10 22.69 22.37 22.36 22.58 22.23 21.59 21.91 22.17 21.63 21.38 21.87 21.93 21.92
23.42 23.20 23.16 21.99 22.38 22.85 22.22 21.58 21.20 22.26 21.37 21.73 22.60 22.30 22.45 22.03 21.98 22.09 22.02 22.03 21.82 22.01
21.87 22.40 22.37 21.83 22.41 22.52 22.03 21.03 20.62 21.06 21.74 22.60 22.41 23.28 22.96 23.34 22.88 22.80 23.73 24.66 24.61 24.51
22.53 22.24 21.81 21.49 22.00 22.36 21.81 21.61 21.57 21.74 21.85 22.18 22.54 24.07 24.24 25.89 25.61 26.14 26.32 27.13 27.19 26.88
21.58 21.46 21.48 21.59 21.44 21.08 21.48 21.37 21.18 20.73 21.23 21.66 22.94 27.04 29.08 29.77 27.59 26.16 26.08 25.90 26.63 27.17
20.92 20.43 20.46 20.69 20.38 19.99 19.62 20.02 19.89 20.32 20.77 20.45 20.93 27.14 30.00 30.68 27.91 26.27 25.58 25.89 26.55 26.89
19.21 19.00 19.51 19.47 18.96 18.64 19.19 19.13 19.59 19.82 20.37 20.98 22.48 27.72 29.55 30.65 27.93 27.58 26.80 26.77 26.56 26.29
18.00 17.80 18.00 17.46 17.48 18.33 18.59 18.78 19.13 21.28 21.36 20.29 21.14 27.46 29.18 29.76 27.19 26.20 26.24 27.09 27.00 27.79
17.42 17.05 16.45 17.16 17.74 18.75 18.77 19.95 21.49 21.54 21.42 22.87 20.95 25.68 29.02 29.41 26.53 25.22 25.17 26.42 29.29 29.81
16.28 16.16 17.00 17.41 18.09 18.78 18.15 19.70 18.38 19.32 19.34 19.86 21.18 22.53 29.15 30.15 27.05 25.73 27.04 25.80 25.49 26.65